Airfield :
LOGIN :

Register | Disclaimer

   EN    FR    IT 

 










Legend :    VFR   Marginal VFR   IFR   Intensive IFR   Very Intensive IFR
Visi :
Ceiling :
>= 8 km
>= 3000ft
5 to 8 km
1000 to 3000 ft
1500m to 5 km
500 to 1000 ft
800 to 1500m
200 to 500 ft
< 800m
< 200 ft
Symbols :   Thunderstorms  Fog  Heavy snow  Heavy precipitations  Wind > 20 kt
SIGMETs :     Misc.  Thunderstorms  Icing  Turbulence  Mountain Waves  Volcanic Ashes







- Airport Elevation : 726 ft
- IATA code : DIJ
- Download approach charts


LFSD - Dijon

CURRENT METAR :
  • 181330Z AUTO 18008KT CAVOK 28/15 Q1016

EXPIRED METARs :
  • 181300Z AUTO 17009KT CAVOK 27/15 Q1017
  • 181230Z AUTO 17009KT 150V210 CAVOK 26/15 Q1017
  • 181200Z AUTO 17009KT CAVOK 26/16 Q1017
  • 181130Z AUTO 18012KT CAVOK 24/16 Q1018
  • 181100Z AUTO 17010KT CAVOK 23/17 Q1018

Expired Forecast.
No reported NOTAMs for that airfield.



MET'MAP, your aeronautical weather chart ! - Copyright ORBIFLY December 2007 - Disclaimer

ORBIFLY MET'MAP TEAM :

Programming & Development : Alexandra Zaïnal
Concept & Development : Baudouin d'Aumeries
Co-Development & Prog : Marc-Olivier Méhu
Technical & hardware support : Manuel Goepfert

Contact : metmap@orbifly.com




SOURCES & CREDITS :

   NOAA